| time (UTC) | temp C | wind direction | speed KPH | gust KPH | rain 1hr cm | rain 24hr cm | rain mn cm | humidity % | barometer mb |
| 20260504050504 | 13 | 351 | 22.5 | 45.1 | 0.00 | 0.00 | 0.00 | 68 | 1010.8 |
| 20260504050012 | 13 | 9 | 20.9 | 35.4 | 0.00 | 0.00 | 0.00 | 68 | 1010.7 |
| 20260504045503 | 13 | 49 | 11.3 | 35.4 | 0.00 | 0.00 | 0.00 | 68 | 1010.8 |
| 20260504045007 | 14 | 343 | 14.5 | 43.5 | 0.00 | 0.00 | 0.00 | 68 | 1010.5 |
| 20260504044514 | 14 | 21 | 17.7 | 43.5 | 0.00 | 0.00 | 0.00 | 66 | 1010.4 |
| 20260504044006 | 15 | 323 | 14.5 | 33.8 | 0.00 | 0.00 | 0.00 | 67 | 1010.4 |
| 20260504043513 | 14 | 14 | 14.5 | 33.8 | 0.00 | 0.00 | 0.00 | 68 | 1010.6 |
| 20260504043011 | 13 | 65 | 19.3 | 35.4 | 0.00 | 0.00 | 0.00 | 67 | 1010.7 |
| 20260504042510 | 13 | 16 | 16.1 | 40.2 | 0.00 | 0.00 | 0.00 | 68 | 1010.8 |
| 20260504042005 | 13 | 349 | 24.1 | 40.2 | 0.00 | 0.00 | 0.00 | 67 | 1010.7 |
| 20260504041508 | 13 | 351 | 17.7 | 43.5 | 0.00 | 0.00 | 0.00 | 67 | 1010.6 |
| 20260504041004 | 13 | 349 | 20.9 | 43.5 | 0.00 | 0.00 | 0.00 | 67 | 1010.7 |
| 20260504040503 | 14 | 7 | 16.1 | 40.2 | 0.00 | 0.00 | 0.00 | 67 | 1010.6 |
| 20260504040008 | 14 | 359 | 22.5 | 43.5 | 0.00 | 0.00 | 0.00 | 67 | 1010.8 |
| 20260504035504 | 13 | 4 | 20.9 | 43.5 | 0.00 | 0.00 | 0.00 | 68 | 1010.7 |
| 20260504035004 | 13 | 16 | 16.1 | 40.2 | 0.00 | 0.00 | 0.00 | 68 | 1010.7 |
| 20260504034507 | 13 | 359 | 22.5 | 40.2 | 0.00 | 0.00 | 0.00 | 67 | 1010.8 |
| 20260504034003 | 13 | 14 | 16.1 | 38.6 | 0.00 | 0.03 | 0.00 | 68 | 1011.0 |
| 20260504033506 | 13 | 320 | 17.7 | 43.5 | 0.00 | 0.03 | 0.00 | 68 | 1010.9 |
| 20260504033003 | 13 | 15 | 22.5 | 46.7 | 0.00 | 0.03 | 0.00 | 68 | 1010.9 |
| 20260504032503 | 13 | 6 | 24.1 | 46.7 | 0.00 | 0.05 | 0.00 | 68 | 1010.9 |
| 20260504032003 | 13 | 6 | 22.5 | 43.5 | 0.00 | 0.08 | 0.00 | 68 | 1011.0 |
| 20260504031503 | 13 | 351 | 22.5 | 53.1 | 0.00 | 0.08 | 0.00 | 67 | 1010.9 |
| 20260504031003 | 13 | 353 | 19.3 | 53.1 | 0.00 | 0.08 | 0.00 | 68 | 1010.9 |
| 20260504030503 | 14 | 4 | 25.7 | 48.3 | 0.00 | 0.10 | 0.00 | 67 | 1010.8 |
| 20260504030005 | 15 | 332 | 30.6 | 48.3 | 0.00 | 0.10 | 0.00 | 65 | 1010.7 |
| 20260504025504 | 14 | 15 | 25.7 | 48.3 | 0.00 | 0.18 | 0.00 | 66 | 1010.8 |
| 20260504025003 | 15 | 352 | 27.4 | 49.9 | 0.00 | 0.18 | 0.00 | 66 | 1010.9 |
| 20260504024509 | 14 | 39 | 25.7 | 51.5 | 0.00 | 0.18 | 0.00 | 66 | 1010.9 |
| 20260504024005 | 15 | 335 | 32.2 | 51.5 | 0.00 | 0.18 | 0.00 | 66 | 1010.9 |
| 20260504023503 | 14 | 358 | 27.4 | 48.3 | 0.00 | 0.18 | 0.00 | 66 | 1011.1 |
| 20260504023014 | 14 | 315 | 33.8 | 53.1 | 0.00 | 0.18 | 0.00 | 65 | 1011.1 |
| 20260504022503 | 14 | 31 | 25.7 | 53.1 | 0.00 | 0.18 | 0.00 | 66 | 1011.1 |
| 20260504022008 | 14 | 9 | 25.7 | 56.3 | 0.00 | 0.18 | 0.00 | 67 | 1011.5 |
| 20260504021513 | 14 | 3 | 32.2 | 56.3 | 0.00 | 0.18 | 0.00 | 66 | 1011.5 |
| 20260504021004 | 14 | 350 | 30.6 | 53.1 | 0.00 | 0.18 | 0.00 | 67 | 1011.7 |
| 20260504020503 | 14 | 326 | 27.4 | 40.2 | 0.00 | 0.20 | 0.00 | 68 | 1011.7 |
| 20260504020004 | 14 | 333 | 20.9 | 46.7 | 0.00 | 0.20 | 0.00 | 70 | 1011.8 |
| 20260504015504 | 13 | 345 | 24.1 | 46.7 | 0.00 | 0.20 | 0.00 | 70 | 1011.8 |
| 20260504015006 | 13 | 346 | 20.9 | 46.7 | 0.00 | 0.20 | 0.00 | 70 | 1011.9 |
| 20260504014508 | 13 | 2 | 19.3 | 37.0 | 0.00 | 0.20 | 0.00 | 73 | 1012.0 |
| 20260504014005 | 13 | 350 | 19.3 | 49.9 | 0.00 | 0.20 | 0.00 | 73 | 1012.2 |
| 20260504013507 | 13 | 335 | 20.9 | 49.9 | 0.00 | 0.20 | 0.00 | 73 | 1012.2 |
| 20260504013008 | 13 | 348 | 25.7 | 48.3 | 0.00 | 0.23 | 0.00 | 75 | 1012.1 |
| 20260504012504 | 13 | 328 | 29.0 | 41.8 | 0.00 | 0.28 | 0.00 | 74 | 1012.1 |
| 20260504012006 | 13 | 343 | 20.9 | 45.1 | 0.00 | 0.36 | 0.00 | 74 | 1012.1 |
| 20260504011503 | 13 | 349 | 19.3 | 45.1 | 0.00 | 0.38 | 0.00 | 76 | 1012.1 |
| 20260504011012 | 13 | 338 | 25.7 | 46.7 | 0.00 | 0.43 | 0.00 | 75 | 1012.1 |
| 20260504010504 | 13 | 339 | 27.4 | 46.7 | 0.00 | 0.48 | 0.00 | 74 | 1011.9 |
| 20260504010023 | 13 | 344 | 16.1 | 49.9 | 0.00 | 0.56 | 0.00 | 75 | 1011.9 |
| 20260504005507 | 13 | 18 | 19.3 | 49.9 | 0.00 | 0.64 | 0.00 | 76 | 1012.0 |
| 20260504005004 | 13 | 8 | 22.5 | 53.1 | 0.00 | 0.69 | 0.00 | 76 | 1011.9 |
| 20260504004507 | 12 | 21 | 22.5 | 53.1 | 0.00 | 0.74 | 0.00 | 76 | 1011.8 |
| 20260504004003 | 12 | 350 | 27.4 | 53.1 | 0.00 | 0.94 | 0.00 | 76 | 1011.9 |
| 20260504003503 | 13 | 359 | 19.3 | 41.8 | 0.00 | 1.02 | 0.00 | 77 | 1012.1 |
| 20260504003010 | 13 | 328 | 17.7 | 41.8 | 0.00 | 1.12 | 0.00 | 78 | 1012.0 |
| 20260504002504 | 12 | 9 | 17.7 | 49.9 | 0.00 | 1.14 | 0.00 | 78 | 1012.1 |
| 20260504002007 | 12 | 343 | 24.1 | 49.9 | 0.00 | 1.19 | 0.00 | 79 | 1012.0 |
| 20260504001515 | 12 | 2 | 22.5 | 49.9 | 0.00 | 1.22 | 0.00 | 78 | 1012.1 |
| 20260504001003 | 12 | 333 | 25.7 | 49.9 | 0.00 | 1.22 | 0.00 | 77 | 1012.2 |
| 20260504000507 | 12 | 351 | 17.7 | 37.0 | 0.00 | 1.24 | 0.00 | 79 | 1012.3 |
| 20260504000010 | 12 | 341 | 22.5 | 41.8 | 0.00 | 1.30 | 0.00 | 78 | 1012.3 |
| 20260503235507 | 12 | 40 | 19.3 | 41.8 | 0.00 | 1.40 | 0.00 | 79 | 1012.2 |
| 20260503235008 | 12 | 6 | 22.5 | 38.6 | 0.00 | 1.47 | 0.00 | 78 | 1011.9 |
| 20260503234508 | 12 | 8 | 20.9 | 43.5 | 0.00 | 1.50 | 0.00 | 79 | 1012.0 |
| 20260503234010 | 11 | 9 | 17.7 | 49.9 | 0.00 | 1.52 | 0.00 | 79 | 1012.1 |
| 20260503233508 | 12 | 358 | 20.9 | 49.9 | 0.00 | 1.55 | 0.00 | 79 | 1012.0 |
| 20260503233009 | 11 | 351 | 22.5 | 40.2 | 0.00 | 1.55 | 0.00 | 80 | 1012.1 |
| 20260503232506 | 11 | 22 | 22.5 | 40.2 | 0.00 | 1.55 | 0.00 | 79 | 1012.3 |
| 20260503232007 | 11 | 17 | 17.7 | 35.4 | 0.00 | 1.55 | 0.00 | 79 | 1012.4 |
| 20260503231514 | 11 | 16 | 20.9 | 35.4 | 0.00 | 1.55 | 0.00 | 79 | 1012.4 |
| 20260503231008 | 11 | 12 | 20.9 | 35.4 | 0.00 | 1.55 | 0.00 | 80 | 1012.7 |
| 20260503230509 | 11 | 22 | 17.7 | 37.0 | 0.00 | 1.55 | 0.00 | 80 | 1012.7 |
| 20260503230019 | 11 | 346 | 19.3 | 38.6 | 0.00 | 1.55 | 0.00 | 80 | 1012.6 |
| 20260503225507 | 11 | 8 | 14.5 | 38.6 | 0.00 | 1.55 | 0.00 | 80 | 1012.6 |
| 20260503225014 | 11 | 10 | 19.3 | 37.0 | 0.00 | 1.55 | 0.00 | 80 | 1012.6 |
| 20260503224527 | 11 | 15 | 19.3 | 33.8 | 0.00 | 1.55 | 0.00 | 79 | 1012.7 |
| 20260503224010 | 12 | 344 | 19.3 | 33.8 | 0.00 | 1.55 | 0.00 | 80 | 1012.7 |
| 20260503223507 | 11 | 49 | 17.7 | 33.8 | 0.00 | 1.55 | 0.00 | 81 | 1012.5 |
| 20260503223018 | 11 | 21 | 17.7 | 33.8 | 0.00 | 1.55 | 0.00 | 81 | 1012.4 |
| 20260503222507 | 11 | 15 | 16.1 | 33.8 | 0.00 | 1.55 | 0.00 | 81 | 1012.3 |
| 20260503222007 | 11 | 16 | 17.7 | 29.0 | 0.00 | 1.55 | 0.00 | 81 | 1012.3 |
| 20260503221516 | 11 | 2 | 12.9 | 35.4 | 0.00 | 1.55 | 0.00 | 82 | 1012.3 |
| 20260503221008 | 11 | 355 | 14.5 | 35.4 | 0.00 | 1.55 | 0.00 | 81 | 1012.4 |
| 20260503220508 | 11 | 347 | 12.9 | 30.6 | 0.00 | 1.55 | 0.00 | 82 | 1012.3 |
| 20260503220021 | 11 | 4 | 11.3 | 30.6 | 0.00 | 1.55 | 0.00 | 82 | 1012.5 |
| 20260503215508 | 11 | 4 | 11.3 | 30.6 | 0.00 | 1.55 | 0.00 | 82 | 1012.6 |
| 20260503215010 | 11 | 6 | 14.5 | 33.8 | 0.00 | 1.55 | 0.00 | 82 | 1012.6 |
| 20260503214510 | 11 | 23 | 14.5 | 33.8 | 0.00 | 1.55 | 0.00 | 82 | 1012.7 |
| 20260503214008 | 11 | 37 | 14.5 | 33.8 | 0.00 | 1.55 | 0.00 | 82 | 1012.7 |
| 20260503213508 | 11 | 348 | 14.5 | 27.4 | 0.00 | 1.55 | 0.00 | 82 | 1012.7 |
| 20260503213021 | 11 | 358 | 12.9 | 27.4 | 0.00 | 1.55 | 0.00 | 82 | 1012.7 |
| 20260503212515 | 11 | 337 | 16.1 | 27.4 | 0.00 | 1.55 | 0.00 | 82 | 1012.5 |
| 20260503212007 | 10 | 360 | 14.5 | 25.7 | 0.00 | 1.55 | 0.00 | 82 | 1012.4 |
| 20260503211527 | 10 | 57 | 4.8 | 22.5 | 0.00 | 1.55 | 0.00 | 82 | 1012.4 |
| 20260503211007 | 10 | 19 | 8.0 | 22.5 | 0.00 | 1.55 | 0.00 | 82 | 1012.3 |
| 20260503210510 | 10 | 7 | 6.4 | 22.5 | 0.00 | 1.55 | 0.00 | 82 | 1012.3 |
| 20260503210023 | 10 | 341 | 9.7 | 20.9 | 0.00 | 1.55 | 0.00 | 82 | 1012.3 |
| 20260503205507 | 10 | 23 | 12.9 | 20.9 | 0.00 | 1.55 | 0.00 | 82 | 1012.2 |
| 20260503205004 | 10 | 24 | 6.4 | 17.7 | 0.00 | 1.55 | 0.00 | 83 | 1012.3 |
| 20260503204515 | 10 | 8 | 9.7 | 17.7 | 0.00 | 1.55 | 0.00 | 83 | 1012.4 |
| 20260503204008 | 11 | 331 | 6.4 | 19.3 | 0.00 | 1.57 | 0.00 | 83 | 1012.5 |
| 20260503203510 | 11 | 24 | 9.7 | 20.9 | 0.00 | 1.57 | 0.00 | 83 | 1012.5 |
| 20260503203019 | 11 | 330 | 8.0 | 20.9 | 0.00 | 1.57 | 0.00 | 83 | 1012.5 |
| 20260503202509 | 10 | 51 | 9.7 | 20.9 | 0.00 | 1.57 | 0.00 | 83 | 1012.4 |
| 20260503202010 | 10 | 31 | 8.0 | 20.9 | 0.00 | 1.60 | 0.00 | 82 | 1012.3 |
| 20260503201518 | 10 | 19 | 11.3 | 19.3 | 0.00 | 1.60 | 0.00 | 82 | 1012.4 |
| 20260503201013 | 10 | 20 | 11.3 | 25.7 | 0.00 | 1.60 | 0.00 | 83 | 1012.2 |
| 20260503200510 | 10 | 37 | 12.9 | 25.7 | 0.00 | 1.60 | 0.00 | 83 | 1012.2 |
| 20260503200016 | 10 | 2 | 9.7 | 25.7 | 0.00 | 1.63 | 0.00 | 84 | 1012.2 |
| 20260503195510 | 10 | 4 | 9.7 | 25.7 | 0.00 | 1.63 | 0.00 | 84 | 1012.1 |
| 20260503195010 | 10 | 32 | 8.0 | 16.1 | 0.00 | 1.65 | 0.00 | 84 | 1012.0 |
| 20260503194531 | 10 | 44 | 4.8 | 16.1 | 0.00 | 1.65 | 0.00 | 84 | 1011.9 |
| 20260503194007 | 10 | 9 | 4.8 | 16.1 | 0.00 | 1.68 | 0.00 | 84 | 1012.0 |
| 20260503193512 | 10 | 47 | 6.4 | 17.7 | 0.00 | 1.68 | 0.00 | 84 | 1012.1 |
| 20260503193017 | 10 | 26 | 9.7 | 19.3 | 0.00 | 1.68 | 0.00 | 84 | 1012.1 |
| 20260503192509 | 10 | 346 | 8.0 | 19.3 | 0.00 | 1.68 | 0.00 | 84 | 1012.2 |
| 20260503192008 | 10 | 27 | 6.4 | 17.7 | 0.00 | 1.68 | 0.00 | 84 | 1012.3 |
| 20260503191520 | 10 | 1 | 9.7 | 19.3 | 0.00 | 1.68 | 0.00 | 85 | 1012.3 |
| 20260503191010 | 10 | 15 | 8.0 | 19.3 | 0.00 | 1.68 | 0.00 | 85 | 1012.3 |
| 20260503190509 | 10 | 21 | 6.4 | 19.3 | 0.00 | 1.68 | 0.00 | 85 | 1012.3 |
| 20260503190026 | 10 | 18 | 4.8 | 16.1 | 0.00 | 1.68 | 0.00 | 85 | 1012.3 |
| 20260503185506 | 10 | 37 | 6.4 | 16.1 | 0.00 | 1.68 | 0.00 | 85 | 1012.3 |
| 20260503185013 | 10 | 295 | 4.8 | 16.1 | 0.00 | 1.68 | 0.00 | 85 | 1012.4 |
| 20260503184511 | 10 | 33 | 6.4 | 16.1 | 0.00 | 1.70 | 0.00 | 84 | 1012.5 |
| 20260503184002 | 10 | 28 | 4.8 | 12.9 | 0.00 | 1.70 | 0.00 | 85 | 1012.5 |
| 20260503183504 | 10 | 54 | 4.8 | 19.3 | 0.00 | 1.73 | 0.00 | 85 | 1012.6 |
| 20260503183004 | 10 | 360 | 4.8 | 19.3 | 0.00 | 1.73 | 0.00 | 85 | 1012.7 |
| 20260503182503 | 10 | 18 | 4.8 | 16.1 | 0.00 | 1.75 | 0.00 | 84 | 1012.7 |
| 20260503182004 | 10 | 54 | 4.8 | 16.1 | 0.00 | 1.75 | 0.00 | 85 | 1012.7 |
| 20260503181504 | 10 | 58 | 4.8 | 19.3 | 0.00 | 1.75 | 0.00 | 84 | 1012.7 |
| 20260503181005 | 10 | 15 | 6.4 | 19.3 | 0.00 | 1.75 | 0.00 | 84 | 1012.8 |
| 20260503180504 | 10 | 14 | 4.8 | 19.3 | 0.00 | 1.75 | 0.00 | 84 | 1012.9 |
| 20260503180005 | 10 | 84 | 6.4 | 19.3 | 0.00 | 1.75 | 0.00 | 84 | 1013.0 |
| 20260503175504 | 10 | 29 | 4.8 | 14.5 | 0.00 | 1.75 | 0.00 | 84 | 1012.9 |
| 20260503175003 | 10 | 57 | 4.8 | 14.5 | 0.00 | 1.75 | 0.00 | 84 | 1012.9 |
| 20260503174504 | 10 | 10 | 3.2 | 17.7 | 0.00 | 1.75 | 0.00 | 84 | 1012.9 |
| 20260503174003 | 10 | 351 | 8.0 | 19.3 | 0.00 | 1.75 | 0.00 | 84 | 1012.9 |
| 20260503173504 | 10 | 34 | 4.8 | 19.3 | 0.00 | 1.75 | 0.00 | 84 | 1013.0 |
| 20260503173005 | 11 | 29 | 6.4 | 14.5 | 0.00 | 1.75 | 0.00 | 85 | 1013.0 |
| 20260503172504 | 10 | 29 | 6.4 | 19.3 | 0.00 | 1.75 | 0.00 | 85 | 1013.1 |
| 20260503172004 | 10 | 28 | 3.2 | 22.5 | 0.00 | 1.75 | 0.00 | 84 | 1013.1 |
| 20260503171509 | 10 | 12 | 9.7 | 22.5 | 0.00 | 1.75 | 0.00 | 84 | 1013.0 |
| 20260503171003 | 10 | 33 | 8.0 | 19.3 | 0.00 | 1.75 | 0.00 | 84 | 1013.0 |
| 20260503170503 | 10 | 31 | 3.2 | 12.9 | 0.00 | 1.75 | 0.00 | 84 | 1013.0 |
| 20260503151003 | 11 | 54 | 6.4 | 22.5 | 0.00 | 1.75 | 0.00 | 83 | 1013.4 |
| 20260503131006 | 11 | 343 | 11.3 | 27.4 | 0.00 | 1.75 | 1.75 | 82 | 1013.9 |
| 20260503090510 | 11 | 9 | 0.0 | 8.0 | 0.00 | 1.75 | 1.75 | 79 | 1013.8 |
| 20260503081506 | 11 | 17 | 4.8 | 12.9 | 0.00 | 1.75 | 1.75 | 77 | 1012.5 |
| 20260503081005 | 11 | 360 | 1.6 | 8.0 | 0.00 | 1.75 | 1.75 | 77 | 1012.4 |
| 20260503080508 | 11 | 14 | 1.6 | 8.0 | 0.00 | 1.75 | 1.75 | 77 | 1012.4 |
| 20260503072505 | 13 | 9 | 8.0 | 14.5 | 0.00 | 1.75 | 1.75 | 73 | 1012.6 |
| 20260503072006 | 13 | 354 | 9.7 | 19.3 | 0.00 | 1.75 | 1.75 | 73 | 1012.5 |
| 20260503070508 | 13 | 350 | 12.9 | 24.1 | 0.00 | 1.75 | 1.75 | 72 | 1012.4 |
| 20260503054509 | 15 | 335 | 12.9 | 27.4 | 0.00 | 1.75 | 1.75 | 81 | 1011.8 |
| 20260503054006 | 15 | 344 | 14.5 | 29.0 | 0.00 | 1.75 | 1.75 | 82 | 1011.7 |
| 20260503053502 | 15 | 340 | 16.1 | 38.6 | 0.00 | 1.75 | 1.75 | 84 | 1011.8 |
| 20260503053013 | 15 | 351 | 14.5 | 38.6 | 0.00 | 1.75 | 1.75 | 85 | 1011.8 |
| 20260503052503 | 14 | 332 | 17.7 | 35.4 | 0.00 | 1.75 | 1.75 | 85 | 1011.7 |
| 20260503052006 | 15 | 324 | 16.1 | 32.2 | 0.00 | 1.75 | 1.75 | 86 | 1011.6 |